Regional Weather Roundup
Issued by NWS Raleigh/Durham, NC

Home | Current Version | Previous Version | Text Only | Print | Product List | Glossary On
Versions: 1 2 3 4 5 6 7 8 9 10 11 12 13 14 15 16 17 18 19 20 21 22 23 24 25 26 27 28 29 30 31 32 33 34 35 36 37 38 39 40 41 42 43 44 45 46 47 48 49 50
000
ASUS42 KRAH 300010
RWRRAH
NORTH CAROLINA WEATHER ROUNDUP
NATIONAL WEATHER SERVICE RALEIGH NC
800 PM EDT SUN MAR 29 2015

NOTE: "FAIR" INDICATES FEW OR NO CLOUDS BELOW 12,000 FEET WITH NO
SIGNIFICANT WEATHER AND/OR OBSTRUCTIONS TO VISIBILITY.

NCZ001-053-055-056-065-067-300100-
WESTERN NORTH CAROLINA

CITY           SKY/WX    TMP DP  RH WIND       PRES   REMARKS
ASHEVILLE      CLEAR     48  14  25 S16       30.21R
JEFFERSON      PTCLDY    40   8  26 S5        30.14S
MORGANTON      CLEAR    N/A N/A N/A S6        30.25F
HICKORY        CLEAR     49  10  20 S8        30.21F
RUTHERFORDTON  CLEAR     49  13  24 S7        30.24S
MOUNT AIRY     PTCLDY    49   8  19 S6        30.21F
BOONE          CLEAR     41  10  28 CALM      30.17R
$$

NCZ021-022-025-041-071-084-088-300100-
CENTRAL NORTH CAROLINA

CITY           SKY/WX    TMP DP  RH WIND       PRES   REMARKS
CHARLOTTE      PTCLDY    49  12  22 S8        30.26F
GREENSBORO     MOCLDY    47  11  23 SW8       30.22F
WINSTON-SALEM  PTCLDY    49   9  19 S7        30.23F
RALEIGH-DURHAM PTCLDY    46  14  27 S5        30.28F
FORT BRAGG     CLEAR     48  17  28 S3        30.29S
FAYETTEVILLE   CLEAR     47  18  31 S5        30.30S
BURLINGTON     PTCLDY    47   8  20 S5        30.24F
LAURINBURG     CLEAR     48  13  24 W3        30.31S
$$

NCZ011-015-027-028-043-044-047-080-103-300100-
NORTHEASTERN NORTH CAROLINA

CITY           SKY/WX    TMP DP  RH WIND       PRES   REMARKS
ROCKY MT-WILSO CLEAR     40  26  57 CALM      30.30F
GREENVILLE     CLEAR     43  19  39 CALM      30.32F
WASHINGTON     CLEAR     44  16  32 SW3       30.32F
ELIZABETH CITY CLEAR     41  17  38 S3        30.31S
MANTEO         CLEAR     36  23  60 CALM      30.33S
CAPE HATTERAS  CLEAR     34  23  64 E6        30.35R WCI  29
$$

NCZ078-087-090-091-093-098-101-300100-
SOUTHEASTERN NORTH CAROLINA

CITY           SKY/WX    TMP DP  RH WIND       PRES   REMARKS
LUMBERTON      CLEAR     47  22  37 S3        30.31S
GOLDSBORO      CLEAR     44  19  36 S3        30.29F
KINSTON        CLEAR     39  27  60 CALM      30.32F
KENANSVILLE    CLEAR     40  21  46 CALM      30.34S
NEW BERN       CLEAR     39  22  50 CALM      30.33F
CHERRY POINT   CLEAR     42  17  36 CALM      30.34F
BEAUFORT       CLEAR     43  27  53 S5        30.34F
JACKSONVILLE   CLEAR     43  18  36 CALM      30.33F
WILMINGTON     CLEAR     45  26  47 CALM      30.33F
$$



USA.gov is the U.S. government's official web portal to all federal, state and local government web resources and services.